#Datum;Uhrzeit;WR;Pac;DaySum;Status;WR;Pac;DaySum;Status;Pdc1;Udc;Temp;WR;Pac;DaySum;Status;Pdc1;Udc;Temp;WR;Pac;DaySum;Status;Pdc1;Udc;Temp;WR;Pac;DaySum;Status;Pdc1;Pdc2;Udc1;Udc2;Temp;WR;Pac;DaySum;Status;Pdc1;Pdc2;Udc1;Udc2;Temp;WR;Pac;DaySum;Status;Pdc1;Udc;Temp;WR;Pac;DaySum;Status;Pdc1;Udc;Temp;WR;Pac;DaySum;Status;Pdc1;Udc;Temp
07.10.20;23:55:00;1;469;9948;0;2;0;9139;0;0;0;0;3;0;5697;0;0;0;0;4;0;7895;0;0;0;0;5;0;0;0;0;0;0;0;0;6;0;13410;0;0;0;0;0;0;7;0;10577;0;0;0;0;8;0;5096;0;0;0;0;9;0;5550;0;0;0;0
07.10.20;23:50:00;1;524;9909;0;2;0;9139;0;0;0;0;3;0;5697;0;0;0;0;4;0;7895;0;0;0;0;5;0;0;0;0;0;0;0;0;6;0;13410;0;0;0;0;0;0;7;0;10577;0;0;0;0;8;0;5096;0;0;0;0;9;0;5550;0;0;0;0
07.10.20;23:45:00;1;489;9865;0;2;0;9139;0;0;0;0;3;0;5697;0;0;0;0;4;0;7895;0;0;0;0;5;0;0;0;0;0;0;0;0;6;0;13410;0;0;0;0;0;0;7;0;10577;0;0;0;0;8;0;5096;0;0;0;0;9;0;5550;0;0;0;0
07.10.20;23:40:00;1;540;9823;0;2;0;9139;0;0;0;0;3;0;5697;0;0;0;0;4;0;7895;0;0;0;0;5;0;0;0;0;0;0;0;0;6;0;13410;0;0;0;0;0;0;7;0;10577;0;0;0;0;8;0;5096;0;0;0;0;9;0;5550;0;0;0;0
07.10.20;23:35:00;1;512;9779;0;2;0;9139;0;0;0;0;3;0;5697;0;0;0;0;4;0;7895;0;0;0;0;5;0;0;0;0;0;0;0;0;6;0;13410;0;0;0;0;0;0;7;0;10577;0;0;0;0;8;0;5096;0;0;0;0;9;0;5550;0;0;0;0
07.10.20;23:30:00;1;495;9735;0;2;0;9139;0;0;0;0;3;0;5697;0;0;0;0;4;0;7895;0;0;0;0;5;0;0;0;0;0;0;0;0;6;0;13410;0;0;0;0;0;0;7;0;10577;0;0;0;0;8;0;5096;0;0;0;0;9;0;5550;0;0;0;0
07.10.20;23:25:00;1;502;9694;0;2;0;9139;0;0;0;0;3;0;5697;0;0;0;0;4;0;7895;0;0;0;0;5;0;0;0;0;0;0;0;0;6;0;13410;0;0;0;0;0;0;7;0;10577;0;0;0;0;8;0;5096;0;0;0;0;9;0;5550;0;0;0;0
07.10.20;23:20:00;1;441;9652;0;2;0;9139;0;0;0;0;3;0;5697;0;0;0;0;4;0;7895;0;0;0;0;5;0;0;0;0;0;0;0;0;6;0;13410;0;0;0;0;0;0;7;0;10577;0;0;0;0;8;0;5096;0;0;0;0;9;0;5550;0;0;0;0
07.10.20;23:15:00;1;481;9616;0;2;0;9139;0;0;0;0;3;0;5697;0;0;0;0;4;0;7895;0;0;0;0;5;0;0;0;0;0;0;0;0;6;0;13410;0;0;0;0;0;0;7;0;10577;0;0;0;0;8;0;5096;0;0;0;0;9;0;5550;0;0;0;0
07.10.20;23:10:00;1;460;9576;0;2;0;9139;0;0;0;0;3;0;5697;0;0;0;0;4;0;7895;0;0;0;0;5;0;0;0;0;0;0;0;0;6;0;13410;0;0;0;0;0;0;7;0;10577;0;0;0;0;8;0;5096;0;0;0;0;9;0;5550;0;0;0;0
07.10.20;23:05:00;1;470;9537;0;2;0;9139;0;0;0;0;3;0;5697;0;0;0;0;4;0;7895;0;0;0;0;5;0;0;0;0;0;0;0;0;6;0;13410;0;0;0;0;0;0;7;0;10577;0;0;0;0;8;0;5096;0;0;0;0;9;0;5550;0;0;0;0
07.10.20;23:00:00;1;530;9497;0;2;0;9139;0;0;0;0;3;0;5697;0;0;0;0;4;0;7895;0;0;0;0;5;0;0;0;0;0;0;0;0;6;0;13410;0;0;0;0;0;0;7;0;10577;0;0;0;0;8;0;5096;0;0;0;0;9;0;5550;0;0;0;0
07.10.20;22:55:00;1;551;9453;0;2;0;9139;0;0;0;0;3;0;5697;0;0;0;0;4;0;7895;0;0;0;0;5;0;0;0;0;0;0;0;0;6;0;13410;2;0;0;0;0;0;7;0;10577;0;0;0;0;8;0;5096;0;0;0;0;9;0;5550;0;0;0;0
07.10.20;22:50:00;1;549;9407;0;2;0;9139;0;0;0;0;3;0;5697;0;0;0;0;4;0;7895;0;0;0;0;5;0;0;0;0;0;0;0;0;6;0;13410;2;0;0;0;0;0;7;0;10577;0;0;0;0;8;0;5096;0;0;0;0;9;0;5550;0;0;0;0
07.10.20;22:45:00;1;606;9361;0;2;0;9139;0;0;0;0;3;0;5697;0;0;0;0;4;0;7895;0;0;0;0;5;0;0;0;0;0;0;0;0;6;0;13410;2;0;0;0;0;0;7;0;10577;0;0;0;0;8;0;5096;0;0;0;0;9;0;5550;0;0;0;0
07.10.20;22:40:00;1;530;9311;0;2;0;9139;0;0;0;0;3;0;5697;0;0;0;0;4;0;7895;0;0;0;0;5;0;0;0;0;0;0;0;0;6;0;13410;2;0;0;0;0;0;7;0;10577;0;0;0;0;8;0;5096;0;0;0;0;9;0;5550;0;0;0;0
07.10.20;22:35:00;1;604;9266;0;2;0;9139;0;0;0;0;3;0;5697;0;0;0;0;4;0;7895;0;0;0;0;5;0;0;0;0;0;0;0;0;6;0;13410;2;0;0;0;0;0;7;0;10577;0;0;0;0;8;0;5096;0;0;0;0;9;0;5550;0;0;0;0
07.10.20;22:30:00;1;637;9217;0;2;0;9139;0;0;0;0;3;0;5697;0;0;0;0;4;0;7895;0;0;0;0;5;0;0;0;0;0;0;0;0;6;0;13410;2;0;0;0;0;0;7;0;10577;0;0;0;0;8;0;5096;0;0;0;0;9;0;5550;0;0;0;0
07.10.20;22:25:00;1;557;9163;0;2;0;9139;0;0;0;0;3;0;5697;0;0;0;0;4;0;7895;0;0;0;0;5;0;0;0;0;0;0;0;0;6;0;13410;2;0;0;0;0;0;7;0;10577;0;0;0;0;8;0;5096;0;0;0;0;9;0;5550;0;0;0;0
07.10.20;22:20:00;1;620;9116;0;2;0;9139;0;0;0;0;3;0;5697;0;0;0;0;4;0;7895;0;0;0;0;5;0;0;0;0;0;0;0;0;6;0;13410;2;0;0;0;0;0;7;0;10577;0;0;0;0;8;0;5096;0;0;0;0;9;0;5550;0;0;0;0
07.10.20;22:15:00;1;662;9064;0;2;0;9139;0;0;0;0;3;0;5697;0;0;0;0;4;0;7895;0;0;0;0;5;0;0;0;0;0;0;0;0;6;0;13410;2;0;0;0;0;0;7;0;10577;0;0;0;0;8;0;5096;0;0;0;0;9;0;5550;0;0;0;0
07.10.20;22:10:00;1;630;9008;0;2;0;9139;0;0;0;0;3;0;5697;0;0;0;0;4;0;7895;0;0;0;0;5;0;0;0;0;0;0;0;0;6;0;13410;2;0;0;0;0;0;7;0;10577;0;0;0;0;8;0;5096;0;0;0;0;9;0;5550;0;0;0;0
07.10.20;22:05:00;1;620;8956;0;2;0;9139;0;0;0;0;3;0;5697;0;0;0;0;4;0;7895;0;0;0;0;5;0;0;0;0;0;0;0;0;6;0;13410;2;0;0;0;0;0;7;0;10577;0;0;0;0;8;0;5096;0;0;0;0;9;0;5550;0;0;0;0
07.10.20;22:00:00;1;625;8903;0;2;0;9139;0;0;0;0;3;0;5697;0;0;0;0;4;0;7895;0;0;0;0;5;0;0;0;0;0;0;0;0;6;0;13410;2;0;0;0;0;0;7;0;10577;0;0;0;0;8;0;5096;0;0;0;0;9;0;5550;0;0;0;0
07.10.20;21:55:00;1;621;8851;0;2;0;9139;0;0;0;0;3;0;5697;0;0;0;0;4;0;7895;0;0;0;0;5;0;0;0;0;0;0;0;0;6;0;13410;2;0;0;0;0;0;7;0;10577;0;0;0;0;8;0;5096;0;0;0;0;9;0;5550;0;0;0;0
07.10.20;21:50:00;1;693;8799;0;2;0;9139;0;0;0;0;3;0;5697;0;0;0;0;4;0;7895;0;0;0;0;5;0;0;0;0;0;0;0;0;6;0;13410;2;0;0;0;0;0;7;0;10577;0;0;0;0;8;0;5096;0;0;0;0;9;0;5550;0;0;0;0
07.10.20;21:45:00;1;642;8743;0;2;0;9139;0;0;0;0;3;0;5697;0;0;0;0;4;0;7895;0;0;0;0;5;0;0;0;0;0;0;0;0;6;0;13410;2;0;0;0;0;0;7;0;10577;0;0;0;0;8;0;5096;0;0;0;0;9;0;5550;0;0;0;0
07.10.20;21:40:00;1;630;8688;0;2;0;9139;0;0;0;0;3;0;5697;0;0;0;0;4;0;7895;0;0;0;0;5;0;0;0;0;0;0;0;0;6;0;13410;2;0;0;0;0;0;7;0;10577;0;0;0;0;8;0;5096;0;0;0;0;9;0;5550;0;0;0;0
07.10.20;21:35:00;1;609;8635;0;2;0;9139;0;0;0;0;3;0;5697;0;0;0;0;4;0;7895;0;0;0;0;5;0;0;0;0;0;0;0;0;6;0;13410;2;0;0;0;0;0;7;0;10577;0;0;0;0;8;0;5096;0;0;0;0;9;0;5550;0;0;0;0
07.10.20;21:30:00;1;755;8577;0;2;0;9139;0;0;0;0;3;0;5697;0;0;0;0;4;0;7895;0;0;0;0;5;0;0;0;0;0;0;0;0;6;0;13410;2;0;0;0;0;0;7;0;10577;0;0;0;0;8;0;5096;0;0;0;0;9;0;5550;0;0;0;0
07.10.20;21:25:00;1;1013;8506;0;2;0;9139;0;0;0;0;3;0;5697;0;0;0;0;4;0;7895;0;0;0;0;5;0;0;0;0;0;0;0;0;6;0;13410;2;0;0;0;0;0;7;0;10577;0;0;0;0;8;0;5096;0;0;0;0;9;0;5550;0;0;0;0
07.10.20;21:20:00;1;896;8424;0;2;0;9139;0;0;0;0;3;0;5697;0;0;0;0;4;0;7895;0;0;0;0;5;0;0;0;0;0;0;0;0;6;0;13410;2;0;0;0;0;0;7;0;10577;0;0;0;0;8;0;5096;0;0;0;0;9;0;5550;0;0;0;0
07.10.20;21:15:00;1;773;8346;0;2;0;9139;0;0;0;0;3;0;5697;0;0;0;0;4;0;7895;0;0;0;0;5;0;0;0;0;0;0;0;0;6;0;13410;2;0;0;0;0;0;7;0;10577;0;0;0;0;8;0;5096;0;0;0;0;9;0;5550;0;0;0;0
07.10.20;21:10:00;1;797;8282;0;2;0;9139;0;0;0;0;3;0;5697;0;0;0;0;4;0;7895;0;0;0;0;5;0;0;0;0;0;0;0;0;6;0;13410;2;0;0;0;0;0;7;0;10577;0;0;0;0;8;0;5096;0;0;0;0;9;0;5550;0;0;0;0
07.10.20;21:05:00;1;831;8215;0;2;0;9139;0;0;0;0;3;0;5697;0;0;0;0;4;0;7895;0;0;0;0;5;0;0;0;0;0;0;0;0;6;0;13410;2;0;0;0;0;0;7;0;10577;0;0;0;0;8;0;5096;0;0;0;0;9;0;5550;0;0;0;0
07.10.20;21:00:00;1;807;8145;0;2;0;9139;0;0;0;0;3;0;5697;0;0;0;0;4;0;7895;0;0;0;0;5;0;0;0;0;0;0;0;0;6;0;13410;2;0;0;0;0;0;7;0;10577;0;0;0;0;8;0;5096;0;0;0;0;9;0;5550;0;0;0;0
07.10.20;20:55:00;1;760;8078;0;2;0;9139;0;0;0;0;3;0;5697;0;0;0;0;4;0;7895;0;0;0;0;5;0;0;0;0;0;0;0;0;6;0;13410;2;0;0;0;0;0;7;0;10577;0;0;0;0;8;0;5096;0;0;0;0;9;0;5550;0;0;0;0
07.10.20;20:50:00;1;735;8015;0;2;0;9139;0;0;0;0;3;0;5697;0;0;0;0;4;0;7895;0;0;0;0;5;0;0;0;0;0;0;0;0;6;0;13410;2;0;0;0;0;0;7;0;10577;0;0;0;0;8;0;5096;0;0;0;0;9;0;5550;0;0;0;0
07.10.20;20:45:00;1;525;7954;0;2;0;9139;0;0;0;0;3;0;5697;0;0;0;0;4;0;7895;0;0;0;0;5;0;0;0;0;0;0;0;0;6;0;13410;2;0;0;0;0;0;7;0;10577;0;0;0;0;8;0;5096;0;0;0;0;9;0;5550;0;0;0;0
07.10.20;20:40:00;1;540;7909;0;2;0;9139;0;0;0;0;3;0;5697;0;0;0;0;4;0;7895;0;0;0;0;5;0;0;0;0;0;0;0;0;6;0;13410;2;0;0;0;0;0;7;0;10577;0;0;0;0;8;0;5096;0;0;0;0;9;0;5550;0;0;0;0
07.10.20;20:35:00;1;654;7864;0;2;0;9139;0;0;0;0;3;0;5697;0;0;0;0;4;0;7895;0;0;0;0;5;0;0;0;0;0;0;0;0;6;0;13410;2;0;0;0;0;0;7;0;10577;0;0;0;0;8;0;5096;0;0;0;0;9;0;5550;0;0;0;0
07.10.20;20:30:00;1;704;7809;0;2;0;9139;0;0;0;0;3;0;5697;0;0;0;0;4;0;7895;0;0;0;0;5;0;0;0;0;0;0;0;0;6;0;13410;2;0;0;0;0;0;7;0;10577;0;0;0;0;8;0;5096;0;0;0;0;9;0;5550;0;0;0;0
07.10.20;20:25:00;1;528;7753;0;2;0;9139;0;0;0;0;3;0;5697;0;0;0;0;4;0;7895;0;0;0;0;5;0;0;0;0;0;0;0;0;6;0;13410;2;0;0;0;0;0;7;0;10577;0;0;0;0;8;0;5096;0;0;0;0;9;0;5550;0;0;0;0
07.10.20;20:20:00;1;349;7709;0;2;0;9139;0;0;0;0;3;0;5697;0;0;0;0;4;0;7895;0;0;0;0;5;0;0;0;0;0;0;0;0;6;0;13410;2;0;0;0;0;0;7;0;10577;0;0;0;0;8;0;5096;0;0;0;0;9;0;5550;0;0;0;0
07.10.20;20:15:00;1;363;7679;0;2;0;9139;0;0;0;0;3;0;5697;0;0;0;0;4;0;7895;0;0;0;0;5;0;0;0;0;0;0;0;0;6;0;13410;2;0;0;0;0;0;7;0;10577;0;0;0;0;8;0;5096;0;0;0;0;9;0;5550;0;0;0;0
07.10.20;20:10:00;1;539;7649;0;2;0;9139;0;0;0;0;3;0;5697;0;0;0;0;4;0;7895;0;0;0;0;5;0;0;0;0;0;0;0;0;6;0;13410;2;0;0;0;0;0;7;0;10577;0;0;0;0;8;0;5096;0;0;0;0;9;0;5550;0;0;0;0
07.10.20;20:05:00;1;679;7606;0;2;0;9139;0;0;0;0;3;0;5697;0;0;0;0;4;0;7895;0;0;0;0;5;0;0;0;0;0;0;0;0;6;0;13410;2;0;0;0;0;0;7;0;10577;0;0;0;0;8;0;5096;0;0;0;0;9;0;5550;0;0;0;0
07.10.20;20:00:00;1;707;7550;0;2;0;9139;0;0;0;0;3;0;5697;0;0;0;0;4;0;7895;0;0;0;0;5;0;0;0;0;0;0;0;0;6;0;13410;2;0;0;0;0;0;7;0;10577;0;0;0;0;8;0;5096;0;0;0;0;9;0;5550;0;0;0;0
07.10.20;19:55:00;1;710;7490;0;2;0;9139;0;0;0;0;3;0;5697;0;0;0;0;4;0;7895;0;0;0;0;5;0;0;0;0;0;0;0;0;6;0;13410;2;0;0;0;0;0;7;0;10577;0;0;0;0;8;0;5096;0;0;0;0;9;0;5550;0;0;0;0
07.10.20;19:50:00;1;942;7417;0;2;0;9139;0;0;0;0;3;0;5697;0;0;0;0;4;0;7895;0;0;0;0;5;0;0;0;0;0;0;0;0;6;0;13410;2;0;0;0;0;0;7;0;10577;0;0;0;0;8;0;5096;0;0;0;0;9;0;5550;0;0;0;0
07.10.20;19:45:00;1;941;7348;0;2;0;9139;0;0;0;0;3;0;5697;0;0;0;0;4;0;7895;0;0;0;0;5;0;0;0;0;0;0;0;0;6;0;13410;2;0;0;0;0;0;7;0;10577;0;0;0;0;8;0;5096;0;0;0;0;9;0;5550;0;0;0;0
07.10.20;19:40:00;1;648;7291;0;2;0;9139;0;0;0;0;3;0;5697;0;0;0;0;4;0;7895;0;0;0;0;5;0;0;0;0;0;0;0;0;6;0;13410;2;0;0;0;0;0;7;0;10577;0;0;0;0;8;0;5096;0;0;0;0;9;0;5550;0;0;0;0
07.10.20;19:35:00;1;605;7235;0;2;0;9139;0;0;0;0;3;0;5697;0;0;0;0;4;0;7895;0;0;0;0;5;0;0;0;0;0;0;0;0;6;0;13410;2;0;0;0;0;0;7;0;10577;0;0;0;0;8;0;5096;0;0;0;0;9;0;5550;0;0;0;0
07.10.20;19:30:00;1;645;7185;0;2;0;9139;0;0;0;0;3;0;5697;0;0;0;0;4;0;7895;0;0;0;0;5;0;0;0;0;0;0;0;0;6;0;13410;2;0;0;0;0;0;7;0;10577;0;0;0;0;8;0;5096;0;0;0;0;9;0;5550;0;0;0;0
07.10.20;19:25:00;1;1085;7131;0;2;0;9139;0;0;0;0;3;0;5697;0;0;0;0;4;0;7895;0;0;0;0;5;0;0;0;0;0;0;0;0;6;0;13410;2;0;0;0;0;0;7;0;10577;0;0;0;0;8;0;5096;0;0;0;0;9;0;5550;0;0;0;0
07.10.20;19:20:00;1;697;7064;0;2;0;9139;0;0;0;0;3;0;5697;0;0;0;0;4;0;7895;0;0;0;0;5;0;0;0;0;0;0;0;0;6;0;13410;2;0;0;0;0;0;7;0;10577;0;0;0;0;8;0;5096;0;0;0;0;9;0;5550;0;0;0;0
07.10.20;19:15:00;1;659;7006;0;2;0;9139;0;0;0;0;3;0;5697;0;0;0;0;4;0;7895;0;0;0;0;5;0;0;0;0;0;0;0;0;6;0;13410;2;0;0;0;0;0;7;0;10577;0;0;0;0;8;0;5096;0;0;0;0;9;0;5550;0;0;0;0
07.10.20;19:10:00;1;683;6950;0;2;0;9139;0;0;0;0;3;0;5697;0;0;0;0;4;0;7895;0;0;0;0;5;0;0;0;0;0;0;0;0;6;0;13410;2;0;0;0;0;0;7;0;10577;0;0;0;0;8;0;5096;0;0;0;0;9;0;5550;0;0;0;0
07.10.20;19:05:00;1;641;6876;0;2;0;9139;0;0;0;0;3;0;5697;0;0;0;0;4;0;7895;0;0;0;0;5;0;0;0;0;0;0;0;0;6;0;13410;2;0;0;0;0;0;7;0;10577;0;0;0;0;8;0;5096;0;0;0;0;9;0;5550;0;0;0;0
07.10.20;19:00:00;1;727;6820;0;2;0;9139;0;0;0;0;3;0;5697;0;0;0;0;4;0;7895;0;0;0;0;5;0;0;0;0;0;0;0;0;6;0;13410;2;0;0;0;0;0;7;0;10577;0;0;0;0;8;0;5096;0;0;0;0;9;0;5550;0;0;0;0
07.10.20;18:55:00;1;669;6759;0;2;0;9139;0;0;0;0;3;0;5697;0;0;0;0;4;0;7895;0;0;0;0;5;0;0;0;0;0;0;0;0;6;0;13410;2;0;0;0;0;0;7;0;10577;0;0;0;0;8;0;5096;0;0;0;0;9;0;5550;0;0;0;0
07.10.20;18:50:00;1;580;6701;0;2;0;9139;0;0;0;0;3;0;5697;0;0;97;8;4;0;7895;0;0;0;0;5;0;0;0;0;0;0;0;0;6;0;13410;2;0;0;0;0;0;7;0;10577;0;0;0;0;8;0;5096;0;0;0;0;9;0;5550;0;0;0;0
07.10.20;18:45:00;1;2074;6652;0;2;0;9139;0;0;229;17;3;0;5697;6;0;298;22;4;0;7895;0;0;45;14;5;0;0;0;0;0;0;0;0;6;0;13410;2;0;0;0;0;0;7;0;10577;0;0;0;0;8;0;5096;0;0;0;0;9;0;5550;0;0;0;0
07.10.20;18:40:00;1;2071;6494;0;2;0;9139;6;0;322;20;3;0;5697;6;3;370;22;4;0;7895;1;0;115;20;5;0;0;0;0;0;0;0;0;6;0;13410;1;4;3;321;151;25;7;0;10577;0;0;132;12;8;0;5096;0;0;132;11;9;0;5550;0;0;184;13
07.10.20;18:35:00;1;216;6298;0;2;0;9139;6;0;357;21;3;1;5697;6;4;411;23;4;0;7895;1;0;164;21;5;0;0;0;0;0;0;0;0;6;0;13410;23;1;8;532;201;30;7;0;10577;6;0;322;25;8;0;5096;6;0;321;23;9;0;5550;6;0;335;20
07.10.20;18:30:00;1;323;6279;0;2;0;9139;6;0;370;21;3;0;5697;6;2;445;23;4;0;7895;1;0;185;21;5;0;0;0;0;0;0;0;0;6;0;13410;23;6;3;305;417;31;7;0;10577;6;0;357;25;8;0;5096;6;0;357;23;9;0;5550;6;0;381;21
07.10.20;18:25:00;1;277;6251;0;2;0;9139;6;0;382;21;3;0;5697;6;3;453;23;4;0;7895;1;0;204;22;5;0;0;0;0;0;0;0;0;6;0;13410;23;8;2;388;552;31;7;0;10577;6;0;393;26;8;0;5096;6;0;384;24;9;0;5550;6;1;405;21
07.10.20;18:20:00;1;284;6228;0;2;0;9139;6;0;407;22;3;0;5697;6;5;501;23;4;0;7895;3;0;204;22;5;0;0;0;0;0;0;0;0;6;55;13410;4;29;48;433;440;33;7;0;10577;6;3;446;26;8;0;5096;6;3;429;24;9;1;5550;6;3;485;21
07.10.20;18:15:00;1;309;6205;0;2;229;9139;4;268;358;23;3;11;5697;6;17;561;24;4;170;7895;3;178;224;23;5;0;0;0;0;0;0;0;0;6;74;13406;4;33;41;433;439;33;7;10;10577;6;16;501;26;8;2;5096;6;4;453;24;9;0;5550;6;4;514;22
07.10.20;18:10:00;1;315;6179;0;2;45;9121;4;81;359;23;3;8;5696;4;20;494;24;4;7;7882;3;7;199;23;5;0;0;0;0;0;0;0;0;6;75;13400;4;21;26;433;440;33;7;5;10577;4;9;465;27;8;0;5095;6;1;465;24;9;1;5550;6;3;505;22
07.10.20;18:05:00;1;321;6152;0;2;100;9117;4;138;367;23;3;13;5695;3;26;528;24;4;59;7881;3;62;199;23;5;0;0;0;0;0;0;0;0;6;121;13393;4;50;60;433;440;33;7;66;10576;4;107;401;27;8;1;5095;6;4;475;25;9;2;5550;6;5;533;22
07.10.20;18:00:00;1;305;6126;0;2;109;9109;4;148;369;24;3;59;5693;4;98;451;25;4;65;7876;5;68;203;23;5;0;0;0;0;0;0;0;0;6;139;13382;4;62;77;433;440;33;7;76;10570;4;120;410;27;8;9;5095;3;17;473;25;9;11;5550;4;20;517;22
07.10.20;17:55:00;1;242;6099;0;2;115;9099;4;155;370;24;3;65;5688;4;103;463;25;4;59;7870;3;61;198;23;5;0;0;0;0;0;0;0;0;6;166;13371;4;78;86;432;439;33;7;103;10564;4;139;416;27;8;5;5094;6;10;476;25;9;10;5549;6;14;555;23
07.10.20;17:50:00;1;243;6079;0;2;248;9089;4;294;390;24;3;149;5683;4;191;501;25;4;182;7865;3;189;222;24;5;0;0;0;0;0;0;0;0;6;278;13356;4;136;144;432;439;33;7;244;10555;4;279;459;27;8;91;5094;4;131;455;25;9;122;5547;4;155;499;23
07.10.20;17:45:00;1;243;6058;0;2;309;9070;4;357;389;25;3;189;5671;4;234;503;26;4;240;7851;5;250;230;24;5;0;0;0;0;0;0;0;0;6;327;13333;4;156;173;433;445;33;7;328;10536;4;378;469;27;8;138;5086;4;182;468;25;9;180;5538;4;213;513;24
07.10.20;17:40:00;1;241;6038;0;2;364;9044;4;414;394;25;3;221;5655;4;267;499;26;4;275;7831;5;287;230;24;5;0;0;0;0;0;0;0;0;6;384;13305;4;174;222;433;549;33;7;377;10508;4;423;460;27;8;158;5075;4;196;466;25;9;188;5523;4;225;515;24
07.10.20;17:35:00;1;291;6018;0;2;565;9015;4;621;397;25;3;272;5637;4;320;489;26;4;367;7809;5;382;232;24;5;0;0;0;0;0;0;0;0;6;387;13273;4;185;244;427;546;33;7;415;10478;4;458;468;27;8;174;5062;4;220;483;25;9;192;5507;4;229;518;24
07.10.20;17:30:00;1;266;5993;0;2;341;8966;4;389;385;26;3;209;5614;4;253;488;26;4;262;7778;5;273;230;25;5;0;0;0;0;0;0;0;0;6;396;13238;4;189;202;542;534;33;7;369;10444;4;418;465;27;8;148;5048;4;193;450;25;9;154;5491;4;191;517;24
07.10.20;17:25:00;1;242;5972;0;2;398;8938;4;449;394;26;3;244;5597;4;291;494;27;4;307;7756;5;320;230;25;5;0;0;0;0;0;0;0;0;6;515;13205;4;256;276;567;546;33;7;383;10413;4;429;451;27;8;164;5035;4;208;456;24;9;194;5479;4;228;508;24
07.10.20;17:20:00;1;331;5951;0;2;713;8904;4;773;395;27;3;445;5576;4;500;504;27;4;588;7729;5;612;236;26;5;0;0;0;0;0;0;0;0;6;922;13158;4;469;479;584;552;33;7;777;10380;4;841;469;27;8;370;5021;4;408;460;24;9;400;5462;4;450;520;24
07.10.20;17:15:00;1;317;5924;0;2;972;8846;4;1047;400;28;3;604;5540;4;668;518;27;4;807;7682;5;841;238;26;5;0;0;0;0;0;0;0;0;6;1182;13080;4;610;616;580;556;33;7;1051;10318;4;1110;473;27;8;504;4992;4;548;460;24;9;512;5430;4;567;532;24
07.10.20;17:10:00;1;333;5897;0;2;2848;8764;4;2998;392;28;3;1204;5489;4;1290;541;27;4;2286;7614;5;2382;250;25;5;0;0;0;0;0;0;0;0;6;2640;12977;4;1364;1321;607;581;33;7;3290;10229;4;3456;495;26;8;1606;4949;4;1697;477;24;9;794;5387;4;868;598;24
07.10.20;17:05:00;1;456;5870;0;2;2298;8529;4;2424;404;26;3;1186;5389;4;1278;561;27;4;1942;7425;5;2023;251;24;5;0;0;0;0;0;0;0;0;6;2403;12752;4;1209;1197;597;579;33;7;2596;9957;4;2736;485;26;8;1302;4818;4;1379;480;24;9;967;5322;4;1047;571;23
07.10.20;17:00:00;1;350;5834;0;2;1435;8339;4;1519;396;24;3;912;5289;4;984;526;25;4;1235;7262;5;1286;251;24;5;0;0;0;0;0;0;0;0;6;1634;12552;4;867;841;589;564;33;7;1708;9729;4;1800;494;26;8;868;4700;4;930;484;24;9;822;5239;4;891;539;22
07.10.20;16:55:00;1;336;5804;0;2;709;8218;4;764;382;23;3;394;5212;4;445;500;25;4;548;7158;5;571;239;24;5;0;0;0;0;0;0;0;0;6;739;12421;4;376;394;497;518;33;7;676;9584;4;731;465;26;8;330;4627;4;369;481;24;9;352;5170;4;397;516;22
07.10.20;16:50:00;1;282;5776;0;2;259;8159;4;301;379;23;3;157;5180;4;200;498;25;4;194;7113;5;202;227;24;5;0;0;0;0;0;0;0;0;6;295;12369;4;159;163;433;440;33;7;206;9529;4;252;472;26;8;87;4600;4;122;446;24;9;117;5141;4;149;492;22
07.10.20;16:45:00;1;283;5753;0;2;217;8137;4;259;374;24;3;131;5167;4;171;498;25;4;156;7097;5;163;221;24;5;0;0;0;0;0;0;0;0;6;272;12344;4;151;163;433;440;33;7;162;9512;4;199;447;26;8;58;4593;4;95;392;24;9;85;5132;4;118;472;22
07.10.20;16:40:00;1;325;5729;0;2;150;8119;4;189;366;24;3;88;5156;4;126;445;25;4;94;7083;5;98;209;24;5;0;0;0;0;0;0;0;0;6;195;12322;4;95;104;433;440;33;7;110;9498;4;139;413;27;8;27;4588;4;47;417;24;9;35;5124;4;50;512;22
07.10.20;16:35:00;1;307;5702;0;2;69;8106;4;104;359;24;3;7;5148;4;12;524;25;4;22;7075;3;23;197;25;5;0;0;0;0;0;0;0;0;6;122;12306;4;58;71;433;440;33;7;7;9489;3;13;476;27;8;0;4585;6;4;476;24;9;2;5121;6;7;527;22
07.10.20;16:30:00;1;283;5677;0;2;198;8100;4;238;375;24;3;116;5147;4;156;492;26;4;147;7073;5;153;222;25;5;0;0;0;0;0;0;0;0;6;275;12295;4;131;143;433;440;33;7;155;9488;4;196;413;27;8;50;4585;6;83;460;24;9;77;5121;6;104;493;23
07.10.20;16:25:00;1;310;5653;0;2;213;8083;4;255;377;25;3;128;5138;4;169;499;26;4;158;7061;5;165;221;25;5;0;0;0;0;0;0;0;0;6;283;12271;4;134;145;433;440;33;7;198;9475;4;234;455;27;8;80;4581;4;117;414;24;9;107;5114;4;140;463;23
07.10.20;16:20:00;1;322;5627;0;2;116;8066;4;154;362;25;3;63;5127;4;103;455;26;4;68;7048;3;71;198;25;5;0;0;0;0;0;0;0;0;6;169;12249;4;71;79;433;440;33;7;81;9459;4;126;421;28;8;7;4574;6;15;467;24;9;7;5106;6;11;546;23
07.10.20;16:15:00;1;324;5600;0;2;111;8056;4;149;363;25;3;63;5122;4;97;431;26;4;63;7042;3;65;198;26;5;0;0;0;0;0;0;0;0;6;165;12235;4;82;91;432;440;34;7;84;9452;4;127;433;28;8;9;4574;6;18;470;24;9;8;5105;6;12;545;23
07.10.20;16:10:00;1;378;5573;0;2;79;8047;4;112;366;26;3;6;5117;6;11;530;26;4;33;7037;3;34;197;26;5;0;0;0;0;0;0;0;0;6;130;12221;4;66;80;433;440;34;7;49;9445;4;84;416;28;8;4;4573;6;13;458;25;9;4;5104;6;9;534;24
07.10.20;16:05:00;1;346;5541;0;2;90;8040;4;128;359;26;3;16;5116;6;31;522;27;4;55;7034;3;57;197;26;5;0;0;0;0;0;0;0;0;6;159;12210;4;74;84;433;440;34;7;80;9441;4;118;422;28;8;5;4573;6;14;466;25;9;5;5104;6;11;543;24
07.10.20;16:00:00;1;332;5512;0;2;153;8033;4;193;373;27;3;85;5114;4;127;483;27;4;105;7029;3;110;216;27;5;0;0;0;0;0;0;0;0;6;231;12197;4;108;121;433;440;34;7;153;9434;4;192;425;29;8;47;4573;6;80;445;25;9;81;5104;4;112;472;25
07.10.20;15:55:00;1;283;5485;0;2;134;8020;4;173;368;28;3;58;5108;4;82;470;27;4;89;7021;5;93;209;27;5;0;0;0;0;0;0;0;0;6;197;12178;4;102;111;433;440;34;7;133;9422;4;166;427;29;8;28;4569;4;44;458;25;9;54;5097;4;73;488;25
07.10.20;15:50:00;1;336;5461;0;2;58;8009;4;93;359;29;3;4;5103;6;10;520;28;4;18;7014;3;18;199;28;5;0;0;0;0;0;0;0;0;6;105;12162;4;41;52;433;440;34;7;40;9411;4;78;367;30;8;0;4567;6;4;476;26;9;3;5093;6;8;525;26
07.10.20;15:45:00;1;395;5433;0;2;104;8004;4;143;365;29;3;49;5103;6;81;458;29;4;57;7012;3;60;197;28;5;0;0;0;0;0;0;0;0;6;162;12153;4;74;85;433;440;35;7;81;9407;4;118;447;30;8;5;4567;4;14;465;26;9;5;5093;6;10;541;26
07.10.20;15:40:00;1;344;5399;0;2;102;7996;4;139;362;31;3;35;5099;6;55;516;29;4;52;7008;3;54;199;29;5;0;0;0;0;0;0;0;0;6;165;12140;4;74;84;433;439;35;7;70;9401;4;112;450;30;8;12;4567;3;29;436;26;9;15;5092;4;26;520;27
07.10.20;15:35:00;1;297;5368;0;2;155;7987;4;196;366;32;3;88;5096;4;130;485;31;4;107;7003;5;111;207;30;5;0;0;0;0;0;0;0;0;6;249;12126;4;115;125;456;466;35;7;143;9395;4;187;440;31;8;45;4565;4;86;412;27;9;72;5091;4;108;475;29
07.10.20;15:30:00;1;347;5343;0;2;741;7974;4;809;396;35;3;450;5089;4;509;510;32;4;656;6994;5;683;227;31;5;0;0;0;0;0;0;0;0;6;1245;12102;4;622;629;575;559;35;7;870;9383;4;940;474;31;8;414;4562;4;459;451;27;9;456;5085;4;507;503;30
07.10.20;15:25:00;1;366;5314;0;2;2046;7913;4;2168;401;36;3;1331;5052;4;1422;518;33;4;1841;6941;5;1917;238;31;5;0;0;0;0;0;0;0;0;6;3047;11985;4;1567;1537;589;567;35;7;2384;9311;4;2495;472;31;8;1174;4527;4;1242;466;27;9;1314;5047;4;1405;513;31
07.10.20;15:20:00;1;367;5284;0;2;2370;7744;4;2508;400;37;3;1479;4941;4;1573;495;33;4;2300;6787;5;2396;239;32;5;0;0;0;0;0;0;0;0;6;3523;11741;4;1830;1753;584;577;35;7;2698;9114;4;2836;476;31;8;1317;4430;4;1390;450;27;9;1466;4938;4;1558;496;32
07.10.20;15:15:00;1;409;5253;0;2;2341;7548;4;2479;398;37;3;1479;4819;4;1575;507;34;4;1993;6598;5;2076;238;32;5;0;0;0;0;0;0;0;0;6;3258;11461;4;1677;1636;583;564;35;7;2848;8892;4;2988;462;31;8;1413;4322;4;1488;467;26;9;1625;4817;4;1732;514;32
07.10.20;15:10:00;1;339;5219;0;2;3766;7354;4;3977;396;38;3;2573;4696;4;2713;526;34;4;3591;6431;5;3740;240;31;5;0;0;0;0;0;0;0;0;6;5086;11179;4;2608;2554;617;585;34;7;4961;8650;4;5218;458;30;8;2380;4202;4;2503;479;26;9;2758;4682;4;2982;513;32
07.10.20;15:05:00;1;228;5189;0;2;4434;7057;4;4720;425;34;3;3007;4495;4;3172;537;31;4;4217;6152;5;4393;250;29;5;0;0;0;0;0;0;0;0;6;6805;10751;4;3500;3431;621;579;34;7;5692;8255;4;6042;471;29;8;3354;4011;4;3509;472;26;9;3429;4464;4;3718;542;30
07.10.20;15:00:00;1;213;5169;0;2;1509;6685;4;1600;395;30;3;991;4243;4;1067;501;29;4;1318;5800;5;1373;243;27;5;0;0;0;0;0;0;0;0;6;2057;10234;4;1068;1046;583;549;34;7;1991;7806;4;2089;458;29;8;999;3753;4;1064;458;26;9;1115;4191;4;1193;512;27
07.10.20;14:55:00;1;223;5151;0;2;503;6557;4;560;389;30;3;317;4158;4;369;497;29;4;417;5688;5;434;231;27;5;0;0;0;0;0;0;0;0;6;760;10074;4;381;401;577;543;34;7;602;7638;4;659;463;29;8;281;3668;4;324;466;26;9;317;4097;4;364;508;27
07.10.20;14:50:00;1;320;5132;0;2;511;6515;4;568;390;31;3;318;4132;4;370;498;30;4;426;5653;5;443;231;28;5;0;0;0;0;0;0;0;0;6;801;10012;4;421;431;570;544;34;7;509;7588;4;563;452;29;8;226;3645;4;270;464;26;9;264;4071;4;310;504;27
07.10.20;14:45:00;1;376;5106;0;2;1320;6472;4;1413;402;33;3;838;4105;4;911;518;31;4;1161;5618;5;1209;236;29;5;0;0;0;0;0;0;0;0;6;1978;9943;4;1003;994;579;567;34;7;1248;7545;4;1320;470;29;8;584;3626;4;637;456;26;9;638;4049;4;700;519;28
07.10.20;14:40:00;1;279;5074;0;2;2188;6360;4;2313;404;34;3;1397;4034;4;1491;516;31;4;1872;5519;5;1950;242;29;5;0;0;0;0;0;0;0;0;6;3216;9761;4;1680;1639;585;568;34;7;2371;7438;4;2493;478;29;8;1157;3576;4;1223;459;26;9;1298;3994;4;1385;516;29
07.10.20;14:35:00;1;320;5051;0;2;1915;6178;4;2032;402;34;3;1229;3918;4;1316;519;32;4;1650;5363;5;1718;239;29;5;0;0;0;0;0;0;0;0;6;2742;9492;4;1413;1391;585;560;34;7;2302;7241;4;2414;467;29;8;1146;3480;4;1215;453;26;9;1286;3885;4;1371;511;29
07.10.20;14:30:00;1;380;5024;0;2;2417;6018;4;2556;394;34;3;1571;3815;4;1672;505;32;4;2121;5225;5;2209;238;29;5;0;0;0;0;0;0;0;0;6;3423;9259;4;1781;1711;590;570;33;7;2660;7049;4;2792;475;29;8;1321;3385;4;1393;466;25;9;1442;3779;4;1533;508;29
07.10.20;14:25:00;1;377;4992;0;2;3079;5816;4;3268;400;32;3;2044;3685;4;2163;512;30;4;2785;5050;5;2901;238;28;5;0;0;0;0;0;0;0;0;6;4756;8938;4;2497;2393;587;576;33;7;3068;6829;4;3223;479;28;8;1686;3275;4;1776;468;25;9;1984;3660;4;2110;521;29
07.10.20;14:20:00;1;408;4961;0;2;2342;5559;4;2475;404;31;3;1455;3515;4;1551;522;30;4;1977;4821;5;2060;243;27;5;0;0;0;0;0;0;0;0;6;3364;8571;4;1772;1691;589;579;33;7;3420;6572;4;3591;463;28;8;1547;3133;4;1623;450;25;9;1712;3499;4;1822;514;28
07.10.20;14:15:00;1;286;4926;0;2;3164;5353;4;3334;409;29;3;2046;3391;4;2164;511;29;4;2910;4653;5;3031;248;25;5;0;0;0;0;0;0;0;0;6;4607;8260;4;2378;2277;602;582;33;7;4168;6288;4;4367;486;27;8;1927;3006;4;2024;441;25;9;2242;3360;4;2379;528;27
07.10.20;14:10:00;1;240;4902;0;2;1366;5102;4;1447;406;28;3;883;3229;4;954;515;28;4;1185;4423;5;1235;242;25;5;0;0;0;0;0;0;0;0;6;1970;7904;4;1021;1006;583;564;33;7;1505;5958;4;1576;475;27;8;738;2854;4;787;458;25;9;830;3184;4;899;520;26
07.10.20;14:05:00;1;214;4881;0;2;1077;4987;4;1150;398;28;3;682;3155;4;749;506;28;4;924;4323;5;962;239;25;5;0;0;0;0;0;0;0;0;6;1583;7744;4;809;788;580;564;33;7;1012;5831;4;1083;472;27;8;482;2792;4;527;466;25;9;535;3114;4;590;509;26